Weather History for Garrison, ND

Change the Weather History Date:

Saturday, May 11, 2013

  Actual Average Record
Temperature  
Mean Temperature 41 °F -  
Max Temperature 56 °F 61 °F 65 °F (2008)
Min Temperature 25 °F 36 °F 25 °F (2005)
Degree Days  
Heating Degree Days 25    
Moisture  
Dew Point 19 °F    
Average Humidity 50    
Maximum Humidity 81    
Minimum Humidity 18    
Precipitation  
Precipitation 0.00 in - - ()
Month to date precipitation 0.00  
Year to date precipitation 3.86  
Sea Level Pressure  
Sea Level Pressure 30.37 in    
Wind  
Wind Speed 9 mph (NNW)    
Max Wind Speed 20 mph    
Max Gust Speed 30 mph    
Averages and records for this station are not official NWS values.
T = Trace of Precipitation, MM = Missing Value Source: NWS Daily Summary

Daily Weather History Graph

Daily Weather History Graph

Search for Another Location

Airport:

Trip Planner

Search our weather history database for the weather conditions in past years. The results will help you decide how hot, cold, wet, or windy it might be!

Date:

Astronomy

May. 11, 2013 Rise Set
Actual Time 6:13 AM CDT 9:11 PM CDT
Civil Twilight 5:37 AM CDT 9:48 PM CDT
Nautical Twilight 4:50 AM CDT 10:34 PM CDT
Astronomical Twilight 3:54 AM CDT 11:31 PM CDT
Moon 7:20 AM CDT (5/11) 10:56 PM CDT (5/11)
Length of Visible Light 16h 11m
Length of Day
14h 58m
Waxing Crescent, 3% of the Moon is Illuminated
May 11
Waxing Crescent
May 17
First Quarter
May 24
Full
May 31
Last Quarter
Jun 8
New

Hourly Weather History & Observations

Time (CDT) Temp. Windchill Dew Point Humidity Pressure Visibility Wind Dir Wind Speed Gust Speed Precip Events Conditions
12:52 AM 43.0 °F 36.8 °F 27.0 °F 53% 30.30 in - North 11.5 mph - N/A   Unknown
1:52 AM 39.9 °F 31.8 °F 27.0 °F 60% 30.35 in - NNE 15.0 mph 24.2 mph N/A   Unknown
2:52 AM 34.0 °F 27.2 °F 27.0 °F 75% 30.38 in - North 8.1 mph - N/A   Unknown
3:52 AM 30.9 °F 22.8 °F 25.0 °F 79% 30.40 in - NNW 9.2 mph - N/A   Unknown
4:52 AM 30.0 °F 22.4 °F 24.1 °F 79% 30.42 in - NNW 8.1 mph - N/A   Unknown
5:52 AM 28.0 °F 20.0 °F 23.0 °F 81% 30.43 in - NNW 8.1 mph - N/A   Unknown
6:52 AM 26.1 °F 17.6 °F 21.9 °F 84% 30.45 in - NW 8.1 mph - N/A   Unknown
7:52 AM 33.1 °F 25.5 °F 26.1 °F 75% 30.46 in - NNW 9.2 mph - N/A   Unknown
8:52 AM 37.9 °F 30.9 °F 25.0 °F 60% 30.46 in - North 10.4 mph - N/A   Unknown
9:52 AM 41.0 °F 37.1 °F 23.0 °F 49% 30.46 in - North 5.8 mph - N/A   Unknown
10:52 AM 43.0 °F 36.8 °F 19.0 °F 38% 30.46 in - NNW 11.5 mph - N/A   Unknown
11:52 AM 46.0 °F 41.4 °F 19.0 °F 34% 30.44 in - North 9.2 mph - N/A   Unknown
12:52 PM 48.0 °F - 18.0 °F 30% 30.41 in - Variable 4.6 mph 18.4 mph N/A   Unknown
1:52 PM 50.0 °F - 16.0 °F 26% 30.40 in - NW 11.5 mph 16.1 mph N/A   Unknown
2:52 PM 52.0 °F - 15.1 °F 23% 30.38 in - North 10.4 mph 17.3 mph N/A   Unknown
3:52 PM 54.0 °F - 12.0 °F 19% 30.36 in - NNW 9.2 mph 17.3 mph N/A   Unknown
4:52 PM 53.1 °F - 12.0 °F 20% 30.34 in - NNE 5.8 mph - N/A   Unknown
5:52 PM 53.1 °F - 14.0 °F 21% 30.32 in - South 5.8 mph - N/A   Unknown
6:52 PM 53.1 °F - 10.0 °F 18% 30.30 in - Variable 3.5 mph - N/A   Unknown
7:52 PM 52.0 °F - 12.9 °F 21% 30.28 in - SSW 5.8 mph - N/A   Unknown
8:52 PM 46.0 °F - 15.1 °F 29% 30.27 in - Calm Calm - N/A   Unknown
9:52 PM 45.0 °F - 16.0 °F 31% 30.27 in - Calm Calm - N/A   Unknown
10:52 PM 39.0 °F - 18.0 °F 43% 30.28 in - Calm Calm - N/A   Unknown
11:52 PM 37.0 °F - 18.0 °F 46% 30.27 in - Calm Calm - N/A   Unknown